CZ-6A DEB, 54996

Orbit data source: Space-Track

CZ-6A DEB, 54996 is space debris in SSO originally from a launch on Fri, 11 Nov 2022 UTC launched from the Taiyaun Space Center, China (TSC). Debris objects in space refer to the collection of defunct objects orbiting the Earth. Examples of debris include non-operational satellites, rocket bodies, and fragments generated from explosions, collisions, or faulty payload assembly.

Loading next visibility...
Identifier
54996, 2022-151UM
Orbit
SSO
Country
Flag of CNCN / PRC
Related business
Manufacturer
SAST
Mission
Spacecraft
Bus & Motor
Unknown
Mass
Unknown
Launch date (UTC)
2022-11-11 (4 years ago)
Launch vehicle
Unknown
Launch site
Taiyaun Space Center, China (TSC)
Object type
Payload
Rocket body
Debris
Shape & HBR
Unknown shape, 0.1 m
Radar Cross Section
Medium (>0.1 m² and <1 m²)

Expand to show TLE details & history
Last TLE update: 2 days ago

TLE from 2 days ago
0 CZ-6A DEB
1 54996U 22151UM  26171.12478942  .00010919  00000-0  15528-2 0  9991
2 54996  98.6091 238.4698 0063621 256.5370 102.8742 14.75675899189849
Epoch: 2026-06-20T02:59Z
TLE epoch observation values (Epoch: 2026-06-20T02:59:41.805Z)
Latitude
-0.00005°
Longitude
-74.79829°
Altitude
656.224 km
Speed
7.524 km/s
True Right ascension
15h 53m 52s
True Declination
0° 00' 00"
Sunlit
Object was in full shadow at epoch
Visualization orbit readout
Latitude
Unknown
Longitude
Unknown
Altitude
Unknown
Speed
Unknown
Apparent Right ascension
Unknown
Apparent Declination
Unknown
Sunlit
N/A
Visualization observer readout
Local Sidereal Time
21:33:05
Azimuth
Unknown
Elevation
Unknown
Doppler factor
Unknown
Orbital elements
Apogee altitude
684.737 km
Perigee altitude
595.435 km
Semi-major axis
7,018.223 km
Eccentricity
0.00636
Inclination
98.6091°
RAAN
238.4698°
Arg. of periapsis
256.537°
True anomaly
103.58364°
Mean anomaly
102.8742°
Eccentric anomaly
103.22905°
Mean motion
3.6915 °/min
Orbital period
97.52 mins
BSTAR
0.0015528
Loading maneuver chart data...
Computing Atmospheric mass density...
Loading historical data...
Loading historical data...
Loading historical data...
Loading historical data...
Loading historical data...
Loading historical data...
Loading historical data...

Documentation

Showing up to 5 results
|